This is the latest recevied weather packets stored in our database for station/object I2HLY-4. If no packets are shown the sender has not sent any weather packets the latest 10 day(s).
| Time | Temp. | Humidity | Pressure | Rain* | Wind** | Luminosity | Snow |
|---|---|---|---|---|---|---|---|
| 1778087841 | 6.67° C | 93% | 1011 hPa | 28.96 mm | - | - | - |
| 1778086942 | 6.67° C | 92% | 1010.8 hPa | 36.07 mm | - | - | - |
| 1778086046 | 6.67° C | 90% | 1010.3 hPa | 34.04 mm | - | - | - |
| 1778085148 | 7.78° C | 90% | 1010.6 hPa | 23.11 mm | - | - | - |
| 1778084233 | 9.44° C | 91% | 1009.4 hPa | 12.95 mm | - | - | - |
| 1778083334 | 10° C | 91% | 1008.8 hPa | 3.05 mm | - | - | - |
| 1778082432 | 10° C | 90% | 1008.7 hPa | 3.05 mm | - | - | - |
| 1778081537 | 10° C | 89% | 1008.8 hPa | 3.05 mm | - | - | - |
| 1778080637 | 11.11° C | 82% | 1009 hPa | 2.03 mm | - | - | - |
| 1778079742 | 12.22° C | 83% | 1008.9 hPa | 0 mm | - | - | - |
| 1778078839 | 12.22° C | 81% | 1009.2 hPa | 0 mm | - | - | - |
| 1778077939 | 12.22° C | 83% | 1009 hPa | 0 mm | - | - | - |
| 1778077042 | 12.22° C | 82% | 1009.4 hPa | 0 mm | - | - | - |
| 1778076142 | 12.78° C | 84% | 1009.8 hPa | 0 mm | - | - | - |
| 1778075245 | 11.67° C | 84% | 1010.1 hPa | 0 mm | - | - | - |
| 1778074349 | 12.22° C | 82% | 1010.3 hPa | 0 mm | - | - | - |
| 1778073449 | 12.78° C | 85% | 1010.3 hPa | 0 mm | - | - | - |
| 1778072553 | 11.67° C | 88% | 1010.3 hPa | 1.02 mm | - | - | - |
| 1778071633 | 11.11° C | 88% | 1010.2 hPa | 1.02 mm | - | - | - |
| 1778070733 | 10.56° C | 90% | 1010.1 hPa | 1.02 mm | - | - | - |
| 1778069838 | 11.11° C | 86% | 1010.1 hPa | 1.02 mm | - | - | - |
| 1778068945 | 11.67° C | 88% | 1010 hPa | 0 mm | - | - | - |
| 1778068045 | 11.11° C | 88% | 1010 hPa | 0 mm | - | - | - |
| 1778067149 | 10.56° C | 89% | 1010.1 hPa | 0 mm | - | - | - |
| 1778066230 | 10.56° C | 88% | 1010.3 hPa | 0 mm | - | - | - |
* Rain latest hour (hover to see other rain measurements)
** Current wind speed in m/s (hover to see current wind gust speed)